VE7KNL-13 Weather Reports


time (UTC)temp
C
wind
direction
speed
KPH
gust
KPH
rain 1hr
cm
rain 24hr
cm
rain mn
cm
humidity
%
barometer
mb
20260506205018 25 68 4.8 11.3 0.00 0.00 0.00 31 1006.7
20260506204018 25 0.0 3.2 0.00 0.00 0.00 32 1007.0
20260506203018 24 0.0 6.4 0.00 0.00 0.00 34 1007.0
20260506202038 23 293 1.6 4.8 0.00 0.00 0.00 35 1007.2
20260506201018 23 45 1.6 8.0 0.00 0.00 0.00 33 1007.4
20260506200017 23 68 1.6 6.4 0.00 0.00 0.00 32 1007.6
20260506195018 23 315 1.6 8.0 0.00 0.00 0.00 33 1007.7
20260506194018 23 293 1.6 4.8 0.00 0.00 0.00 34 1007.8
20260506193017 23 0.0 1.6 0.00 0.00 0.00 38 1007.8
20260506192038 23 135 1.6 6.4 0.00 0.00 0.00 34 1007.9
20260506191038 22 90 1.6 6.4 0.00 0.00 0.00 36 1008.0
20260506190019 23 270 3.2 8.0 0.00 0.00 0.00 34 1008.1
20260506185017 22 68 1.6 8.0 0.00 0.00 0.00 37 1008.4
20260506184017 22 113 1.6 8.0 0.00 0.00 0.00 37 1008.5
20260506183038 21 45 3.2 6.4 0.00 0.00 0.00 37 1008.5
20260506182017 21 0.0 6.4 0.00 0.00 0.00 37 1008.9
20260506181038 21 23 1.6 4.8 0.00 0.00 0.00 38 1009.1
20260506180017 20 45 3.2 6.4 0.00 0.00 0.00 40 1009.1
20260506175038 20 45 3.2 6.4 0.00 0.00 0.00 40 1009.1
20260506174018 20 45 3.2 9.7 0.00 0.00 0.00 41 1009.6
20260506173018 19 0.0 4.8 0.00 0.00 0.00 42 1009.6
20260506172017 18 23 1.6 4.8 0.00 0.00 0.00 41 1009.6
20260506171017 17 0.0 3.2 0.00 0.00 0.00 43 1009.8
20260506170017 17 90 3.2 8.0 0.00 0.00 0.00 44 1009.8
20260506165017 17 45 1.6 6.4 0.00 0.00 0.00 45 1010.0
20260506164037 16 45 1.6 4.8 0.00 0.00 0.00 47 1010.1
20260506163017 15 0.0 6.4 0.00 0.00 0.00 48 1010.1
20260506162039 14 0.0 4.8 0.00 0.00 0.00 50 1010.4
20260506161017 13 68 1.6 4.8 0.00 0.00 0.00 53 1010.4
20260506160017 13 0.0 4.8 0.00 0.00 0.00 53 1010.5
20260506155017 13 45 3.2 4.8 0.00 0.00 0.00 53 1010.8
20260506154017 12 68 1.6 4.8 0.00 0.00 0.00 56 1010.8
20260506153017 11 68 1.6 4.8 0.00 0.00 0.00 60 1011.0
20260506152017 11 90 1.6 3.2 0.00 0.00 0.00 62 1011.0
20260506151037 10 0.0 4.8 0.00 0.00 0.00 62 1011.0
20260506150017 10 0.0 3.2 0.00 0.00 0.00 62 1011.3
20260506145017 10 158 1.6 6.4 0.00 0.00 0.00 64 1011.3
20260506144057 9 0.0 0.0 0.00 0.00 0.00 65 1011.3
20260506143017 8 0.0 1.6 0.00 0.00 0.00 66 1011.6
20260506142017 7 0.0 0.0 0.00 0.00 0.00 71 1011.6
20260506141017 6 0.0 1.6 0.00 0.00 0.00 78 1011.6
20260506140017 5 0.0 0.0 0.00 0.00 0.00 82 1011.6
20260506135017 4 0.0 0.0 0.00 0.00 0.00 86 1011.4
20260506134017 3 0.0 0.0 0.00 0.00 0.00 88 1011.1
20260506133017 3 0.0 0.0 0.00 0.00 0.00 87 1011.3
20260506132018 3 0.0 0.0 0.00 0.00 0.00 87 1011.2
20260506131017 3 0.0 0.0 0.00 0.00 0.00 86 1011.1
20260506130017 3 0.0 0.0 0.00 0.00 0.00 86 1011.1
20260506125017 3 0.0 0.0 0.00 0.00 0.00 86 1011.0
20260506124017 3 0.0 0.0 0.00 0.00 0.00 86 1011.0
20260506123017 3 0.0 0.0 0.00 0.00 0.00 86 1011.0
20260506122017 3 0.0 0.0 0.00 0.00 0.00 86 1010.9
20260506121037 3 0.0 0.0 0.00 0.00 0.00 85 1010.7
20260506120017 3 0.0 0.0 0.00 0.00 0.00 84 1010.9
20260506115016 3 0.0 0.0 0.00 0.00 0.00 84 1010.9
20260506114037 3 0.0 0.0 0.00 0.00 0.00 83 1010.9
20260506113016 3 0.0 0.0 0.00 0.00 0.00 83 1011.0
20260506112016 3 0.0 0.0 0.00 0.00 0.00 84 1011.0
20260506111016 3 0.0 0.0 0.00 0.00 0.00 83 1010.8
20260506110017 3 0.0 0.0 0.00 0.00 0.00 83 1010.6
20260506105017 3 0.0 0.0 0.00 0.00 0.00 82 1010.6
20260506104016 3 0.0 0.0 0.00 0.00 0.00 82 1010.6
20260506103037 4 0.0 1.6 0.00 0.00 0.00 81 1010.6
20260506102016 4 0.0 0.0 0.00 0.00 0.00 80 1010.6
20260506101018 4 0.0 0.0 0.00 0.00 0.00 80 1010.6
20260506100017 4 0.0 0.0 0.00 0.00 0.00 80 1010.4
20260506095016 5 0.0 0.0 0.00 0.00 0.00 79 1010.5
20260506094016 5 0.0 0.0 0.00 0.00 0.00 79 1010.6
20260506093016 5 0.0 0.0 0.00 0.00 0.00 78 1010.4
20260506092016 5 0.0 0.0 0.00 0.00 0.00 78 1010.4
20260506091016 5 0.0 0.0 0.00 0.00 0.00 78 1010.4
20260506090036 5 0.0 0.0 0.00 0.00 0.00 77 1010.5
20260506085016 5 0.0 0.0 0.00 0.00 0.00 78 1010.5
20260506084016 5 0.0 0.0 0.00 0.00 0.00 77 1010.4
20260506083016 5 0.0 0.0 0.00 0.00 0.00 76 1010.4
20260506082016 6 0.0 0.0 0.00 0.00 0.00 75 1010.1
20260506081016 6 0.0 0.0 0.00 0.00 0.00 75 1009.9
20260506073018 7 0.0 0.0 0.00 0.00 0.00 72 1010.0
20260506072016 7 0.0 0.0 0.00 0.00 0.00 71 1010.0
20260506071018 7 0.0 0.0 0.00 0.00 0.00 70 1009.8
20260506062038 8 0.0 0.0 0.00 0.00 0.00 66 1009.4
20260506061057 8 0.0 0.0 0.00 0.00 0.00 66 1009.4
20260506051017 11 0.0 0.0 0.00 0.00 0.00 60 1008.8
20260506045017 11 0.0 1.6 0.00 0.00 0.00 58 1008.5
20260506044017 12 0.0 0.0 0.00 0.00 0.00 57 1008.4
20260506043017 12 0.0 0.0 0.00 0.00 0.00 54 1008.2
20260506042017 12 0.0 0.0 0.00 0.00 0.00 53 1008.1
20260506041017 13 0.0 0.0 0.00 0.00 0.00 52 1007.8
20260506040017 13 0.0 0.0 0.00 0.00 0.00 51 1007.7
20260506035017 14 0.0 0.0 0.00 0.00 0.00 50 1007.5
20260506034017 15 0.0 0.0 0.00 0.00 0.00 50 1007.4
20260506033017 15 0.0 1.6 0.00 0.00 0.00 49 1007.3
20260506032017 16 0.0 0.0 0.00 0.00 0.00 46 1007.0
20260506031037 16 0.0 0.0 0.00 0.00 0.00 45 1006.8
20260506030017 17 0.0 0.0 0.00 0.00 0.00 44 1006.5
20260506025017 18 225 1.6 4.8 0.00 0.00 0.00 41 1006.4
20260506024016 19 0.0 3.2 0.00 0.00 0.00 36 1006.4
20260506023016 21 0.0 3.2 0.00 0.00 0.00 32 1006.1
20260506022037 21 23 1.6 6.4 0.00 0.00 0.00 27 1006.2
20260506021017 22 0.0 4.8 0.00 0.00 0.00 27 1006.3
20260506020057 22 23 4.8 11.3 0.00 0.00 0.00 20 1006.0
20260506015017 23 23 6.4 11.3 0.00 0.00 0.00 21 1006.2
20260506014016 23 45 3.2 12.9 0.00 0.00 0.00 19 1006.1
20260506013016 23 23 4.8 12.9 0.00 0.00 0.00 19 1006.1
20260506012016 23 45 3.2 9.7 0.00 0.00 0.00 20 1006.1
20260506011016 24 45 3.2 11.3 0.00 0.00 0.00 20 1006.2
20260506010017 24 90 3.2 8.0 0.00 0.00 0.00 19 1006.2
20260506005016 24 45 1.6 6.4 0.00 0.00 0.00 21 1006.2
20260506004017 24 68 3.2 11.3 0.00 0.00 0.00 21 1006.2
20260506003016 24 113 1.6 6.4 0.00 0.00 0.00 19 1006.1
20260506002016 24 90 1.6 8.0 0.00 0.00 0.00 21 1006.2
20260506001016 25 113 1.6 8.0 0.00 0.00 0.00 22 1006.3
20260506000036 25 270 1.6 8.0 0.00 0.00 0.00 21 1006.4
20260505235057 25 0.0 3.2 0.00 0.00 0.00 20 1006.5
20260505234016 26 225 1.6 9.7 0.00 0.00 0.00 21 1006.7
20260505233016 26 0.0 4.8 0.00 0.00 0.00 21 1006.7
20260505232018 26 113 1.6 6.4 0.00 0.00 0.00 21 1007.1
20260505231016 26 0.0 3.2 0.00 0.00 0.00 21 1007.3
20260505230016 26 90 1.6 6.4 0.00 0.00 0.00 20 1007.2
20260505225016 26 0 1.6 4.8 0.00 0.00 0.00 20 1007.2
20260505224016 25 68 3.2 12.9 0.00 0.00 0.00 21 1007.4
20260505223016 25 0.0 3.2 0.00 0.00 0.00 20 1007.4
20260505222016 25 135 4.8 9.7 0.00 0.00 0.00 21 1007.7
20260505221016 25 0 1.6 11.3 0.00 0.00 0.00 20 1007.6
20260505220036 24 45 4.8 9.7 0.00 0.00 0.00 21 1007.6
20260505215037 24 68 1.6 6.4 0.00 0.00 0.00 22 1007.8
20260505214016 23 45 1.6 6.4 0.00 0.00 0.00 23 1008.0
20260505213036 23 113 4.8 14.5 0.00 0.00 0.00 22 1007.9
20260505212018 23 90 4.8 9.7 0.00 0.00 0.00 24 1008.2
20260505211018 23 90 4.8 9.7 0.00 0.00 0.00 24 1008.5
20260505210038 23 68 3.2 11.3 0.00 0.00 0.00 26 1008.5